MM0ZFG-5 Weather Reports


time (UTC)temp
F
wind
direction
speed
knots
gust
knots
rain 1hr
in
rain 24hr
in
rain mn
in
humidity
%
barometer
mb
20260506222703 47 72 0.9 3.5 0.00 0.00 0.00 70 1009.7
20260506221803 47 101 0.9 2.6 0.00 0.00 0.00 70 1009.6
20260506220924 47 124 0.9 3.5 0.00 0.00 0.00 70 1009.7
20260506220004 47 124 1.7 3.5 0.00 0.00 0.00 69 1009.8
20260506215404 47 117 1.7 2.6 0.00 0.00 0.00 68 1009.7
20260506214503 47 123 1.7 5.2 0.00 0.00 0.00 68 1009.8
20260506213603 47 148 0.9 2.6 0.00 0.00 0.00 68 1009.8
20260506212705 47 116 0.9 2.6 0.00 0.00 0.00 67 1009.8
20260506211804 47 117 0.9 2.6 0.00 0.00 0.00 66 1009.8
20260506210925 47 123 0.9 3.5 0.00 0.00 0.00 66 1009.7
20260506210005 47 108 1.7 3.5 0.00 0.00 0.00 67 1009.8
20260506205403 48 117 0.9 2.6 0.00 0.00 0.00 67 1009.8
20260506204504 48 115 0.9 2.6 0.00 0.00 0.00 66 1009.8
20260506203603 48 127 0.0 3.5 0.00 0.00 0.00 66 1009.8
20260506202703 48 112 0.9 3.5 0.00 0.00 0.00 66 1009.7
20260506201805 49 125 0.9 2.6 0.00 0.00 0.00 65 1009.8
20260506200904 49 109 0.9 6.1 0.00 0.00 0.00 65 1009.9
20260506200004 49 128 0.9 2.6 0.00 0.00 0.00 65 1010.0
20260506195403 49 120 0.9 2.6 0.00 0.00 0.00 65 1010.0
20260506194503 49 119 0.9 0.9 0.00 0.00 0.00 65 1009.8
20260506193605 49 140 0.0 1.7 0.00 0.00 0.00 64 1009.8
20260506192705 50 161 0.0 1.7 0.00 0.00 0.00 64 1009.9
20260506191806 50 127 0.9 2.6 0.00 0.00 0.00 64 1010.0
20260506190903 50 189 0.9 2.6 0.00 0.00 0.00 64 1010.0
20260506190004 50 195 1.7 2.6 0.00 0.00 0.00 64 1010.1
20260506185403 51 185 1.7 2.6 0.00 0.00 0.00 63 1010.0
20260506184504 51 197 2.6 5.2 0.00 0.00 0.00 63 1010.1
20260506183604 51 196 3.5 5.2 0.00 0.00 0.00 63 1010.1
20260506182704 51 192 3.5 5.2 0.00 0.00 0.00 61 1010.1
20260506181806 52 196 4.3 8.7 0.00 0.00 0.00 62 1010.1
20260506180903 53 208 4.3 8.7 0.00 0.00 0.00 61 1010.0
20260506180004 53 208 4.3 8.7 0.00 0.00 0.00 60 1009.8
20260506175404 52 197 3.5 6.1 0.00 0.00 0.00 63 1009.8
20260506174504 53 194 3.5 6.1 0.00 0.00 0.00 62 1009.8
20260506173624 53 199 3.5 5.2 0.00 0.00 0.00 62 1009.8
20260506172724 54 201 3.5 5.2 0.00 0.00 0.00 61 1009.9
20260506171804 54 202 3.5 7.0 0.00 0.00 0.00 62 1009.9
20260506170924 54 206 3.5 6.1 0.00 0.00 0.00 59 1010.0
20260506170005 54 205 3.5 7.0 0.00 0.00 0.00 58 1010.3
20260506165403 54 210 4.3 7.0 0.00 0.00 0.00 58 1010.3
20260506164504 54 203 3.5 6.1 0.00 0.00 0.00 56 1010.2
20260506163604 55 194 3.5 6.1 0.00 0.00 0.00 55 1010.1
20260506162703 55 205 2.6 5.2 0.00 0.00 0.00 56 1010.4
20260506161804 55 205 2.6 5.2 0.00 0.00 0.00 53 1010.3
20260506160904 55 202 2.6 6.1 0.00 0.00 0.00 53 1010.4
20260506160004 56 204 2.6 5.2 0.00 0.00 0.00 51 1010.5
20260506155403 56 205 1.7 5.2 0.00 0.00 0.00 51 1010.6
20260506154524 56 211 2.6 6.1 0.00 0.00 0.00 51 1010.6
20260506153624 57 207 2.6 5.2 0.00 0.00 0.00 48 1010.4
20260506152703 57 217 2.6 6.1 0.00 0.00 0.00 48 1010.7
20260506151825 57 212 2.6 6.1 0.00 0.00 0.00 47 1010.8
20260506150903 57 216 4.3 7.0 0.00 0.00 0.00 48 1011.0
20260506150004 58 224 4.3 8.7 0.00 0.00 0.00 46 1011.0
20260506145403 58 221 5.2 8.7 0.00 0.00 0.00 48 1011.0
20260506144503 58 216 5.2 8.7 0.00 0.00 0.00 48 1011.0
20260506143603 58 210 5.2 8.7 0.00 0.00 0.00 46 1011.2
20260506142703 59 213 4.3 8.7 0.00 0.00 0.00 46 1011.4
20260506141804 59 205 3.5 8.7 0.00 0.00 0.00 47 1011.2
20260506140904 58 208 3.5 7.0 0.00 0.00 0.00 48 1011.3
20260506140004 58 210 3.5 7.0 0.00 0.00 0.00 46 1011.3
20260506135404 58 206 3.5 7.0 0.00 0.00 0.00 46 1011.6
20260506134503 59 197 3.5 7.0 0.00 0.00 0.00 47 1011.6
20260506133624 58 202 4.3 8.7 0.00 0.00 0.00 48 1011.7
20260506132703 57 222 5.2 9.6 0.00 0.00 0.00 46 1011.8
20260506131804 57 205 4.3 7.8 0.00 0.00 0.00 45 1011.6
20260506130903 58 208 3.5 7.0 0.00 0.00 0.00 45 1011.7
20260506130004 58 182 1.7 3.5 0.00 0.00 0.00 42 1011.7
20260506125403 58 206 2.6 5.2 0.00 0.00 0.00 46 1011.8
20260506124504 58 201 3.5 7.8 0.00 0.00 0.00 43 1012.0
20260506123604 57 191 2.6 6.1 0.00 0.00 0.00 46 1011.8
20260506122703 57 139 1.7 5.2 0.00 0.00 0.00 44 1012.0
20260506121826 57 124 1.7 5.2 0.00 0.00 0.00 44 1011.8
20260506120903 56 159 1.7 5.2 0.00 0.00 0.00 48 1012.1
20260506120006 55 81 1.7 6.1 0.00 0.00 0.00 49 1012.0
20260506115404 54 71 2.6 9.6 0.00 0.00 0.00 47 1012.1
20260506114505 54 65 3.5 8.7 0.00 0.00 0.00 47 1012.3
20260506113624 53 85 3.5 9.6 0.00 0.00 0.00 48 1012.2
20260506112703 52 43 2.6 9.6 0.00 0.00 0.00 47 1012.2
20260506111824 52 79 3.5 9.6 0.00 0.00 0.00 49 1012.4
20260506110903 53 71 2.6 7.0 0.00 0.00 0.00 48 1012.5
20260506110004 52 86 2.6 7.0 0.00 0.00 0.00 50 1012.5
20260506105404 51 75 2.6 7.0 0.00 0.00 0.00 50 1012.7
20260506104503 51 84 2.6 9.6 0.00 0.00 0.00 49 1012.8
20260506103625 51 91 2.6 6.1 0.00 0.00 0.00 52 1012.8
20260506102725 50 97 2.6 9.6 0.00 0.00 0.00 55 1012.9
20260506101804 50 116 2.6 7.8 0.00 0.00 0.00 55 1012.8
20260506100904 49 79 2.6 7.8 0.00 0.00 0.00 54 1012.9
20260506100005 49 69 0.9 9.6 0.00 0.00 0.00 58 1013.1
20260506095403 49 100 0.9 9.6 0.00 0.00 0.00 56 1013.1
20260506094525 48 114 1.7 5.2 0.00 0.00 0.00 60 1013.3
20260506093603 47 113 1.7 7.8 0.00 0.00 0.00 60 1013.1
20260506092703 47 108 2.6 7.0 0.00 0.00 0.00 61 1013.4
20260506091803 47 92 2.6 7.0 0.00 0.00 0.00 59 1013.2
20260506090925 47 108 1.7 7.0 0.00 0.00 0.00 61 1013.6
20260506090004 46 143 1.7 7.0 0.00 0.00 0.00 64 1013.6
20260506085404 45 117 1.7 6.1 0.00 0.00 0.00 64 1013.6
20260506084504 45 174 1.7 3.5 0.00 0.00 0.00 65 1013.7
20260506083605 44 154 1.7 5.2 0.00 0.00 0.00 66 1013.7
20260506082704 44 87 1.7 5.2 0.00 0.00 0.00 67 1013.8
20260506081805 44 73 1.7 5.2 0.00 0.00 0.00 68 1013.6
20260506080905 44 68 1.7 7.8 0.00 0.00 0.00 66 1013.6
20260506072703 44 82 1.7 6.1 0.00 0.00 0.00 69 1013.7
20260506071804 44 67 0.9 6.1 0.00 0.00 0.00 71 1013.5
20260506070905 44 33 1.7 6.1 0.00 0.00 0.00 69 1013.6
20260506061803 42 42 1.7 5.2 0.00 0.00 0.00 72 1013.7
20260506060904 42 32 0.9 3.5 0.00 0.00 0.00 72 1013.5
20260506050904 41 337 0.9 2.6 0.00 0.00 0.00 75 1013.6
20260506044503 41 338 0.9 2.6 0.00 0.00 0.00 75 1013.5
20260506043604 41 333 0.9 2.6 0.00 0.00 0.00 75 1013.6
20260506042704 41 335 0.9 2.6 0.00 0.00 0.00 74 1013.6
20260506041804 41 346 0.0 1.7 0.00 0.00 0.00 74 1013.8
20260506040904 41 345 0.9 1.7 0.00 0.00 0.00 73 1013.8
20260506040024 41 344 0.0 1.7 0.00 0.00 0.00 73 1013.7
20260506035404 42 342 0.0 1.7 0.00 0.00 0.00 73 1013.6
20260506034504 41 348 0.9 3.5 0.00 0.00 0.00 73 1013.8
20260506033624 42 346 0.9 2.6 0.00 0.00 0.00 72 1013.7
20260506032705 42 337 0.9 3.5 0.00 0.00 0.00 72 1013.7
20260506031804 42 344 1.7 6.1 0.00 0.00 0.00 72 1013.6
20260506030903 42 27 1.7 5.2 0.00 0.00 0.00 72 1013.9
20260506030004 42 4 1.7 5.2 0.00 0.00 0.00 72 1014.0
20260506025403 42 350 0.9 2.6 0.00 0.00 0.00 72 1013.9
20260506024503 42 360 0.9 2.6 0.00 0.00 0.00 72 1013.9
20260506023603 42 1 0.9 3.5 0.00 0.00 0.00 72 1013.9
20260506022703 42 342 0.9 5.2 0.00 0.00 0.00 72 1013.9
20260506021804 42 351 0.9 2.6 0.00 0.00 0.00 73 1013.9
20260506020903 42 333 0.9 3.5 0.00 0.00 0.00 72 1013.8
20260506020004 42 339 0.9 2.6 0.00 0.00 0.00 72 1013.9
20260506015404 42 338 0.9 2.6 0.00 0.00 0.00 72 1013.9
20260506014503 42 352 0.9 3.5 0.00 0.00 0.00 72 1013.9
20260506013603 43 14 1.7 5.2 0.00 0.00 0.00 71 1014.1
20260506012703 43 1 1.7 3.5 0.00 0.00 0.00 71 1014.2
20260506011804 43 10 1.7 8.7 0.00 0.00 0.00 71 1014.0
20260506010904 43 11 1.7 8.7 0.00 0.00 0.00 72 1014.0
20260506010004 43 9 0.9 2.6 0.00 0.00 0.00 73 1014.1
20260506005403 43 359 0.9 2.6 0.00 0.00 0.00 73 1014.3
20260506004505 43 8 0.9 2.6 0.00 0.00 0.00 73 1014.4
20260506003626 43 7 1.7 3.5 0.00 0.00 0.00 73 1014.3
20260506002703 43 346 0.9 3.5 0.00 0.00 0.00 73 1014.4
20260506001803 43 336 0.9 3.5 0.00 0.00 0.00 73 1014.3
20260506000905 43 334 0.9 2.6 0.00 0.00 0.00 73 1014.5
20260506000004 43 358 1.7 2.6 0.00 0.00 0.00 73 1014.3
20260505235403 43 342 0.9 2.6 0.00 0.00 0.00 73 1014.4
20260505234503 43 9 0.9 2.6 0.00 0.00 0.00 73 1014.4
20260505233603 43 342 0.9 2.6 0.00 0.00 0.00 73 1014.2
20260505232703 43 354 0.9 5.2 0.00 0.00 0.00 73 1014.2
20260505231805 44 354 0.9 2.6 0.00 0.00 0.00 72 1014.2
20260505230924 44 344 0.0 1.7 0.00 0.00 0.00 72 1014.3
20260505230003 44 343 0.9 2.6 0.00 0.00 0.00 71 1014.3
20260505225405 44 343 0.9 2.6 0.00 0.00 0.00 70 1014.6
20260505224503 44 345 0.9 3.5 0.00 0.00 0.00 69 1014.7
20260505223603 44 353 1.7 7.8 0.00 0.00 0.00 69 1014.6